• In Österreich
  • Länderverzeichnis
  • Für 7 Tage
  • Wassertemperatur
  • Satellitenkarten
  • Wetterkarte
  • News
  • Widgets
  • user-avatar
    Anmelden

    Stündliche Wetter Graz

    Heute, 23 September, Samstag

    Zeit Temperatur Niederschläge Wind Luftdruck Luftfeuchtigkeit
    00:00 +10°C° 0 mm 1 m/S 728 mmHg 85%
    01:00 +10°C° 0 mm 1 m/S 728 mmHg 85%
    02:00 +9°C° 0 mm 1 m/S 728 mmHg 86%
    03:00 +9°C° 0 mm 1 m/S 727 mmHg 86%
    04:00 +9°C° 0 mm 1 m/S 727 mmHg 87%
    05:00 +9°C° 0 mm 1 m/S 727 mmHg 85%
    06:00 +10°C° 0 mm 1 m/S 727 mmHg 83%
    07:00 +11°C° 0 mm 1 m/S 728 mmHg 78%
    08:00 +14°C° 0 mm 1 m/S 728 mmHg 70%
    09:00 +16°C° 0 mm 1 m/S 728 mmHg 61%
    10:00 +20°C° 0 mm 1 m/S 728 mmHg 53%
    11:00 +21°C° 0 mm 1 m/S 728 mmHg 50%
    12:00 +22°C° 0 mm 1 m/S 727 mmHg 47%
    13:00 +23°C° 0 mm 1 m/S 727 mmHg 44%
    14:00 +22°C° 0 mm 1 m/S 727 mmHg 48%
    15:00 +22°C° 0 mm 1 m/S 727 mmHg 52%
    16:00 +21°C° 0 mm 1 m/S 726 mmHg 57%
    17:00 +19°C° 0,2 mm 1 m/S 726 mmHg 67%
    18:00 +15°C° 0,2 mm 1 m/S 726 mmHg 77%
    19:00 +13°C° 0,2 mm 1 m/S 726 mmHg 87%
    20:00 +13°C° 0,1 mm 1 m/S 727 mmHg 89%
    21:00 +12°C° 0,1 mm 1 m/S 727 mmHg 91%
    22:00 +10°C° 0,1 mm 0 m/S 727 mmHg 94%
    23:00 +10°C° 0 mm 0 m/S 727 mmHg 94%

    Morgen, 24 September, Sonntag

    Zeit Temperatur Niederschläge Wind Luftdruck Luftfeuchtigkeit
    00:00 +10°C° 0 mm 0 m/S 727 mmHg 94%
    01:00 +10°C° 0 mm 0 m/S 727 mmHg 95%
    02:00 +10°C° 0 mm 0 m/S 727 mmHg 95%
    03:00 +10°C° 0 mm 1 m/S 727 mmHg 95%
    04:00 +10°C° 0 mm 1 m/S 727 mmHg 95%
    05:00 +11°C° 0 mm 1 m/S 727 mmHg 93%
    06:00 +11°C° 0 mm 1 m/S 727 mmHg 92%
    07:00 +10°C° 0 mm 0 m/S 727 mmHg 90%
    08:00 +12°C° 0 mm 0 m/S 727 mmHg 84%
    09:00 +14°C° 0 mm 0 m/S 727 mmHg 77%
    10:00 +16°C° 0 mm 0 m/S 728 mmHg 70%
    11:00 +18°C° 0,2 mm 1 m/S 728 mmHg 69%
    12:00 +19°C° 0,2 mm 1 m/S 727 mmHg 68%
    13:00 +19°C° 0,2 mm 1 m/S 727 mmHg 68%
    14:00 +19°C° 0,4 mm 1 m/S 727 mmHg 72%
    15:00 +18°C° 0,4 mm 1 m/S 727 mmHg 75%
    16:00 +18°C° 0,4 mm 1 m/S 727 mmHg 79%
    17:00 +15°C° 0,3 mm 1 m/S 727 mmHg 84%
    18:00 +14°C° 0,3 mm 1 m/S 727 mmHg 89%
    19:00 +12°C° 0,3 mm 0 m/S 727 mmHg 94%
    20:00 +11°C° 0,2 mm 0 m/S 727 mmHg 95%
    21:00 +11°C° 0,2 mm 0 m/S 727 mmHg 95%
    22:00 +11°C° 0,2 mm 0 m/S 727 mmHg 96%
    23:00 +11°C° 0,1 mm 0 m/S 727 mmHg 96%

    übermorgen, 25 September, Montag

    Zeit Temperatur Niederschläge Wind Luftdruck Luftfeuchtigkeit
    00:00 +10°C° 0,1 mm 0 m/S 727 mmHg 96%
    01:00 +10°C° 0,1 mm 0 m/S 727 mmHg 96%
    02:00 +10°C° 0 mm 0 m/S 727 mmHg 96%
    03:00 +10°C° 0 mm 0 m/S 727 mmHg 96%
    04:00 +10°C° 0 mm 0 m/S 727 mmHg 96%
    05:00 +10°C° 0 mm 0 m/S 727 mmHg 95%
    06:00 +10°C° 0 mm 0 m/S 727 mmHg 94%
    07:00 +11°C° 0 mm 0 m/S 727 mmHg 94%
    08:00 +13°C° 0 mm 1 m/S 727 mmHg 90%
    09:00 +14°C° 0 mm 1 m/S 727 mmHg 86%
    10:00 +15°C° 0 mm 1 m/S 727 mmHg 82%
    11:00 +16°C° 0,1 mm 1 m/S 727 mmHg 79%
    12:00 +16°C° 0,1 mm 1 m/S 727 mmHg 76%
    13:00 +18°C° 0,1 mm 1 m/S 727 mmHg 74%
    14:00 +18°C° 0,1 mm 1 m/S 727 mmHg 74%
    15:00 +18°C° 0,1 mm 1 m/S 727 mmHg 74%
    16:00 +18°C° 0,1 mm 1 m/S 727 mmHg 74%
    17:00 +15°C° 0 mm 1 m/S 727 mmHg 81%
    18:00 +14°C° 0 mm 1 m/S 727 mmHg 87%
    19:00 +12°C° 0 mm 1 m/S 727 mmHg 94%
    20:00 +12°C° 0 mm 1 m/S 728 mmHg 95%
    21:00 +12°C° 0 mm 1 m/S 728 mmHg 95%
    22:00 +11°C° 0 mm 1 m/S 728 mmHg 96%
    23:00 +11°C° 0 mm 1 m/S 728 mmHg 96%

    26 September, Dienstag

    Zeit Temperatur Niederschläge Wind Luftdruck Luftfeuchtigkeit
    00:00 +11°C° 0 mm 1 m/S 728 mmHg 96%
    01:00 +11°C° 0 mm 1 m/S 728 mmHg 96%
    02:00 +11°C° 0 mm 1 m/S 728 mmHg 96%
    03:00 +11°C° 0 mm 1 m/S 728 mmHg 95%
    04:00 +10°C° 0 mm 1 m/S 728 mmHg 95%
    05:00 +11°C° 0 mm 1 m/S 728 mmHg 94%
    06:00 +11°C° 0 mm 1 m/S 728 mmHg 93%
    07:00 +12°C° 0 mm 1 m/S 728 mmHg 92%
    08:00 +13°C° 0,1 mm 1 m/S 728 mmHg 87%
    09:00 +15°C° 0,1 mm 1 m/S 728 mmHg 82%
    10:00 +16°C° 0,1 mm 1 m/S 728 mmHg 77%
    11:00 +18°C° 0,2 mm 1 m/S 728 mmHg 75%
    12:00 +19°C° 0,2 mm 1 m/S 728 mmHg 73%
    13:00 +19°C° 0,2 mm 1 m/S 728 mmHg 71%
    14:00 +19°C° 0,1 mm 1 m/S 727 mmHg 72%
    15:00 +19°C° 0,1 mm 1 m/S 727 mmHg 74%
    16:00 +19°C° 0,1 mm 1 m/S 727 mmHg 75%
    17:00 +16°C° 0,1 mm 1 m/S 727 mmHg 81%
    18:00 +15°C° 0,1 mm 1 m/S 727 mmHg 86%
    19:00 +13°C° 0,1 mm 1 m/S 727 mmHg 91%
    20:00 +13°C° 0,2 mm 1 m/S 728 mmHg 92%
    21:00 +13°C° 0,2 mm 1 m/S 728 mmHg 93%
    22:00 +13°C° 0,2 mm 1 m/S 728 mmHg 93%
    23:00 +13°C° 0,2 mm 1 m/S 728 mmHg 93%

    27 September, Mittwoch

    Zeit Temperatur Niederschläge Wind Luftdruck Luftfeuchtigkeit
    00:00 +12°C° 0,2 mm 1 m/S 728 mmHg 93%
    01:00 +12°C° 0,2 mm 1 m/S 728 mmHg 94%
    02:00 +12°C° 0,1 mm 1 m/S 728 mmHg 94%
    03:00 +12°C° 0,1 mm 1 m/S 728 mmHg 93%
    04:00 +12°C° 0,1 mm 1 m/S 728 mmHg 93%
    05:00 +12°C° 0 mm 1 m/S 729 mmHg 93%
    06:00 +13°C° 0 mm 1 m/S 729 mmHg 92%
    07:00 +13°C° 0 mm 1 m/S 729 mmHg 91%
    08:00 +15°C° 0 mm 1 m/S 729 mmHg 83%
    09:00 +19°C° 0 mm 1 m/S 730 mmHg 75%
    10:00 +21°C° 0 mm 1 m/S 730 mmHg 66%
    11:00 +21°C° 0,4 mm 1 m/S 730 mmHg 65%
    12:00 +22°C° 0,4 mm 1 m/S 730 mmHg 63%
    13:00 +22°C° 0,4 mm 1 m/S 729 mmHg 62%
    14:00 +22°C° 0,5 mm 1 m/S 729 mmHg 65%
    15:00 +21°C° 0,5 mm 1 m/S 729 mmHg 68%
    16:00 +21°C° 0,5 mm 1 m/S 729 mmHg 71%
    17:00 +19°C° 0,2 mm 1 m/S 729 mmHg 77%
    18:00 +16°C° 0,2 mm 1 m/S 729 mmHg 83%
    19:00 +13°C° 0,2 mm 0 m/S 730 mmHg 88%
    20:00 +14°C° 0 mm 1 m/S 730 mmHg 89%
    21:00 +14°C° 0 mm 1 m/S 730 mmHg 90%
    22:00 +13°C° 0 mm 1 m/S 730 mmHg 91%
    23:00 +13°C° 0 mm 1 m/S 730 mmHg 91%

    28 September, Donnerstag

    Zeit Temperatur Niederschläge Wind Luftdruck Luftfeuchtigkeit
    00:00 +13°C° 0 mm 1 m/S 730 mmHg 92%
    01:00 +13°C° 0 mm 1 m/S 730 mmHg 92%
    02:00 +12°C° 0 mm 1 m/S 730 mmHg 92%
    03:00 +12°C° 0 mm 1 m/S 731 mmHg 92%
    04:00 +12°C° 0 mm 1 m/S 731 mmHg 92%
    05:00 +12°C° 0 mm 1 m/S 731 mmHg 91%
    06:00 +13°C° 0 mm 1 m/S 731 mmHg 90%
    07:00 +13°C° 0 mm 1 m/S 731 mmHg 89%
    08:00 +15°C° 0 mm 1 m/S 732 mmHg 81%
    09:00 +19°C° 0 mm 1 m/S 732 mmHg 73%
    10:00 +21°C° 0 mm 1 m/S 732 mmHg 65%
    11:00 +22°C° 0,1 mm 1 m/S 732 mmHg 62%
    12:00 +22°C° 0,1 mm 1 m/S 732 mmHg 59%
    13:00 +23°C° 0,1 mm 1 m/S 732 mmHg 56%
    14:00 +22°C° 0,3 mm 1 m/S 732 mmHg 60%
    15:00 +22°C° 0,3 mm 1 m/S 731 mmHg 63%
    16:00 +21°C° 0,3 mm 1 m/S 731 mmHg 67%
    17:00 +19°C° 0,1 mm 1 m/S 731 mmHg 73%
    18:00 +16°C° 0,1 mm 1 m/S 732 mmHg 78%
    19:00 +13°C° 0,1 mm 0 m/S 732 mmHg 84%
    20:00 +14°C° 0 mm 1 m/S 732 mmHg 85%
    21:00 +13°C° 0 mm 1 m/S 732 mmHg 86%
    22:00 +13°C° 0 mm 1 m/S 732 mmHg 86%
    23:00 +12°C° 0 mm 1 m/S 732 mmHg 87%
    Mehr zeigen